Location: Be Tobo
(6.6442°N, 10.6239°W)
Time: 00:30:43
(UTC+00:00)

CZ-2C R/B - Pass Details

Date: 18 September 2020
Orbit: 704 x 907 km, 98.1° (Epoch: 21 October)

Event Time Altitude Azimuth Distance (km) Brightness Sun altitude
Rises 19:27:01 0° 149° (SSE) 3,130 5.8 -12.4°
Reaches altitude 10° 19:29:26 10° 140° (SE) 2,229 5.0 -13.0°
Maximum altitude 19:33:48 33° 76° (ENE) 1,248 3.6 -14.1°
Drops below altitude 10° 19:38:21 10° 13° (NNE) 2,328 5.4 -15.2°
Sets 19:40:55 0° 4° (N) 3,289 6.3 -15.8°
